Cocoa Beach, FL

10:37 PM EDT on September 22, 2017 (GMT -0400)
Patrick Air Force Base

Weather History for KCOF - July, 2013

Change the Weather History Date:

Monday, July 29, 2013

  Actual Average Record
Temperature  
Mean Temperature 82 °F -  
Max Temperature 87 °F 85 °F 95 °F (1999)
Min Temperature 77 °F 74 °F 73 °F (2008)
Cooling Degree Days 17    
Growing Degree Days 32 (Base 50)    
Moisture  
Dew Point 75 °F    
Average Humidity 78    
Maximum Humidity 90    
Minimum Humidity 70    
Precipitation  
Precipitation 0.00 in - - ()
Sea Level Pressure  
Sea Level Pressure 30.13 in    
Wind  
Wind Speed 6 mph (SE)    
Max Wind Speed 13 mph    
Max Gust Speed -    
Visibility 10 miles    
Events Thunderstorm    
Averages and records for this station are not official NWS values.
T = Trace of Precipitation, MM = Missing Value Source: NWS Daily Summary

Daily Weather History Graph

Daily Weather History Graph

Search for Another Location

Airport or City:

Trip Planner

Search our weather history database for the weather conditions in past years. The results will help you decide how hot, cold, wet, or windy it might be!

Date:

Astronomy

Jul. 29, 2013 Rise Set
Actual Time 6:43 AM EDT 8:14 PM EDT
Civil Twilight 6:17 AM EDT 8:39 PM EDT
Nautical Twilight 5:46 AM EDT 9:10 PM EDT
Astronomical Twilight 5:14 AM EDT 9:42 PM EDT
Moon 12:16 AM EDT (7/29) 1:40 PM EDT (7/29)
Length of Visible Light 14h 22m
Length of Day
13h 31m
Waning Gibbous, 51% of the Moon is Illuminated
Jul 29
Waning Gibbous
Jul 29
Last Quarter
Aug 6
New
Aug 14
First Quarter
Aug 20
Full

Hourly Weather History & Observations

Time (EDT) Temp. Heat Index Dew Point Humidity Pressure Visibility Wind Dir Wind Speed Gust Speed Precip Events Conditions
12:58 AM 78.8 °F - 74.5 °F 87% 30.09 in 10.0 mi SE 4.6 mph - N/A   Clear
1:58 AM 78.6 °F - 74.5 °F 87% 30.08 in 10.0 mi SSE 6.9 mph - N/A   Clear
2:58 AM 78.8 °F - 73.2 °F 83% 30.06 in 10.0 mi SSE 4.6 mph - N/A   Clear
3:58 AM 78.1 °F - 73.8 °F 86% 30.06 in 10.0 mi South 2.3 mph - N/A   Clear
4:58 AM 77.4 °F - 73.6 °F 88% 30.08 in 10.0 mi South 4.6 mph - N/A   Clear
5:58 AM 77.4 °F - 73.0 °F 86% 30.06 in 10.0 mi South 5.8 mph - N/A   Clear
6:58 AM 77.2 °F - 72.3 °F 85% 30.09 in 10.0 mi SSW 3.5 mph - N/A   Clear
7:58 AM 79.9 °F - 73.4 °F 80% 30.12 in 10.0 mi Calm Calm - N/A   Clear
8:58 AM 82.8 °F 88.2 °F 72.5 °F 71% 30.14 in 10.0 mi Variable 3.5 mph - N/A   Clear
9:53 AM 84.2 °F 90.9 °F 73.4 °F 70% 30.13 in 10.0 mi SE 3.5 mph - N/A   Mostly Cloudy
9:58 AM 83.8 °F 90.8 °F 73.9 °F 72% 30.14 in 10.0 mi Variable 2.3 mph - N/A   Mostly Cloudy
10:13 AM 82.4 °F 88.2 °F 73.4 °F 74% 30.13 in 10.0 mi East 5.8 mph - N/A   Scattered Clouds
10:58 AM 83.5 °F 90.0 °F 73.8 °F 72% 30.16 in 10.0 mi East 5.8 mph - N/A   Clear
11:58 AM 84.4 °F 91.7 °F 73.9 °F 71% 30.16 in 10.0 mi East 8.1 mph - N/A   Clear
12:58 PM 85.5 °F 93.8 °F 74.7 °F 70% 30.14 in 10.0 mi ESE 10.4 mph - N/A   Clear
12:59 PM 86.0 °F 95.1 °F 75.2 °F 70% 30.13 in 10.0 mi East 10.4 mph - N/A   Light Drizzle
1:01 PM 86.0 °F 95.1 °F 75.2 °F 70% 30.13 in 10.0 mi East 9.2 mph - N/A   Clear
1:58 PM 85.8 °F 94.6 °F 74.8 °F 70% 30.14 in 10.0 mi ESE 10.4 mph - 0.00 in Thunderstorm Clear
2:58 PM 86.7 °F 97.3 °F 76.3 °F 71% 30.14 in 10.0 mi ESE 12.7 mph - N/A   Clear
3:58 PM 87.3 °F 98.2 °F 76.5 °F 70% 30.14 in 10.0 mi ESE 12.7 mph - N/A   Clear
4:58 PM 84.4 °F 93.9 °F 76.6 °F 77% 30.12 in 10.0 mi SE 8.1 mph - N/A   Clear
5:58 PM 83.5 °F 91.6 °F 75.7 °F 77% 30.12 in 10.0 mi SE 8.1 mph - N/A   Clear
6:58 PM 83.1 °F 90.4 °F 75.0 °F 76% 30.12 in 10.0 mi SSE 10.4 mph - N/A   Clear
7:58 PM 82.4 °F 89.8 °F 75.7 °F 80% 30.14 in 10.0 mi SSE 8.1 mph - N/A   Clear
8:58 PM 81.3 °F 88.5 °F 76.6 °F 86% 30.16 in 10.0 mi SSE 5.8 mph - N/A   Clear
9:58 PM 80.8 °F 87.2 °F 76.6 °F 87% 30.17 in 10.0 mi SSE 3.5 mph - N/A   Clear
10:58 PM 80.2 °F 86.3 °F 77.0 °F 90% 30.17 in 10.0 mi SE 3.5 mph - N/A   Clear
11:58 PM 79.7 °F - 76.3 °F 89% 30.19 in 10.0 mi SE 4.6 mph - N/A   Clear